Lincoln, NE

3:59 PM CST on November 13, 2019 (GMT -0600)
Lincoln Municipal

Weather History for KLNK - August, 2019

Change the Weather History Date:

Wednesday, August 7, 2019

  Actual Average Record
Temperature  
Mean Temperature 78 °F 77 °F  
Max Temperature 89 °F 88 °F 104 °F (1988)
Min Temperature 67 °F 65 °F 44 °F (1989)
Degree Days  
Heating Degree Days 0 0  
Month to date heating degree days 0 0  
Since 1 June heating degree days 6 17  
Since 1 July heating degree days 0 1  
Cooling Degree Days 13 12  
Month to date cooling degree days 83 84  
Year to date cooling degree days 829 795  
Since 1 June cooling degree days 757 716  
Growing Degree Days 28 (Base 50)    
Moisture  
Dew Point 66 °F    
Average Humidity 73    
Maximum Humidity 93    
Minimum Humidity 52    
Precipitation  
Precipitation 0.34 in 0.11 in 2.02 in (1907)
Month to date precipitation 0.36 0.74  
Year to date precipitation 22.23 18.83  
Snow  
Snow 0.00 in 0.00 in 0.00 in (2006)
Month to date snowfall 0.0 0.0  
Since 1 June snowfall 0.0 0.0  
Since 1 July snowfall 0.0 0.0  
Snow Depth 0.00 in    
Sea Level Pressure  
Sea Level Pressure 29.90 in    
Wind  
Wind Speed 6 mph (NW)    
Max Wind Speed 28 mph    
Max Gust Speed 39 mph    
Visibility 8 miles    
Events Rain , Thunderstorm    
T = Trace of Precipitation, MM = Missing Value Source: NWS Daily Summary

Daily Weather History Graph

Daily Weather History Graph

Search for Another Location

Airport or City:

Astronomy

Aug. 07, 2019 Rise Set
Actual Time 6:29 AM CDT 8:35 PM CDT
Civil Twilight 5:58 AM CDT 9:06 PM CDT
Nautical Twilight 5:21 AM CDT 9:43 PM CDT
Astronomical Twilight 4:41 AM CDT 10:23 PM CDT
Moon 2:05 PM CDT (8/7) 12:20 AM CDT (8/7)
Length of Visible Light 15h 07m
Length of Day
14h 06m
Waxing Crescent, 50% of the Moon is Illuminated
Aug 7
Waxing Crescent
Aug 7
First Quarter
Aug 15
Full
Aug 23
Last Quarter
Aug 30
New

Hourly Weather History & Observations

Time (CDT) Temp. Heat Index Dew Point Humidity Pressure Visibility Wind Dir Wind Speed Gust Speed Precip Events Conditions
12:54 AM 73.9 °F - 64.9 °F 73% 29.90 in 10.0 mi SSE 6.9 mph - N/A   Clear
1:54 AM 75.9 °F - 64.0 °F 67% 29.89 in 10.0 mi East 9.2 mph - N/A   Mostly Cloudy
2:30 AM 72.0 °F - 64.9 °F 78% 29.93 in 9.0 mi ENE 10.4 mph - 0.00 in Rain , Thunderstorm Light Rain
2:49 AM 71.6 °F - 64.4 °F 78% 29.99 in 3.0 mi NNW 21.9 mph 39.1 mph 0.02 in Rain , Thunderstorm Heavy Thunderstorms and Rain
2:54 AM 71.1 °F - 64.9 °F 81% 29.94 in 2.0 mi North 24.2 mph 39.1 mph 0.08 in Rain , Thunderstorm Heavy Thunderstorms and Rain
2:58 AM 71.1 °F - 64.9 °F 81% 29.97 in 3.0 mi North 19.6 mph 29.9 mph 0.02 in Rain , Thunderstorm Heavy Thunderstorms and Rain
3:13 AM 70.0 °F - 66.0 °F 87% 30.01 in 5.0 mi NNW 17.3 mph 24.2 mph 0.08 in Rain , Thunderstorm Rain
3:20 AM 70.0 °F - 64.9 °F 84% 30.02 in 7.0 mi NW 11.5 mph 23.0 mph 0.09 in Rain , Thunderstorm Light Thunderstorms and Rain
3:35 AM 69.1 °F - 64.0 °F 84% 30.02 in 6.0 mi NNW 8.1 mph - 0.11 in Rain , Thunderstorm Rain
3:46 AM 68.0 °F - 64.0 °F 87% 30.00 in 5.0 mi NNE 5.8 mph - 0.12 in Rain , Thunderstorm Thunderstorms and Rain
3:54 AM 66.9 °F - 64.0 °F 90% 29.96 in 4.0 mi North 3.5 mph - 0.15 in Rain , Thunderstorm Heavy Thunderstorms and Rain
4:03 AM 68.0 °F - 64.0 °F 87% 29.97 in 5.0 mi Calm Calm - 0.02 in Rain Rain
4:12 AM 66.9 °F - 64.0 °F 90% 29.90 in 7.0 mi South 16.1 mph - 0.04 in Rain , Thunderstorm Rain
4:54 AM 66.9 °F - 63.0 °F 87% 29.85 in 10.0 mi SSW 11.5 mph - 0.07 in Rain , Thunderstorm Light Rain
5:07 AM 68.0 °F - 63.0 °F 84% 29.86 in 10.0 mi SSW 18.4 mph 26.5 mph 0.00 in Rain Light Rain
5:54 AM 69.1 °F - 63.0 °F 81% 29.72 in 10.0 mi South 21.9 mph 33.4 mph 0.02 in Rain Light Rain
6:54 AM 70.0 °F - 64.0 °F 81% 29.84 in 10.0 mi North 4.6 mph - 0.00 in   Clear
7:54 AM 71.1 °F - 64.0 °F 78% 29.85 in 10.0 mi SSE 3.5 mph - 0.00 in   Clear
8:54 AM 73.0 °F - 64.0 °F 73% 29.92 in 10.0 mi Calm Calm - N/A   Clear
9:54 AM 71.1 °F - 66.0 °F 84% 29.86 in 8.0 mi South 10.4 mph - 0.01 in Rain Light Rain
10:54 AM 77.0 °F - 64.9 °F 66% 29.88 in 10.0 mi Calm Calm - 0.01 in   Clear
11:54 AM 78.1 °F - 66.9 °F 68% 29.86 in 10.0 mi Variable 3.5 mph - N/A   Clear
12:54 PM 80.1 °F 82.7 °F 68.0 °F 67% 29.88 in 10.0 mi Variable 6.9 mph - N/A   Clear
1:54 PM 82.9 °F 85.8 °F 68.0 °F 60% 29.88 in 10.0 mi WNW 9.2 mph - N/A   Clear
2:54 PM 84.9 °F 88.8 °F 69.1 °F 59% 29.86 in 10.0 mi West 6.9 mph - N/A   Clear
3:54 PM 87.1 °F 91.3 °F 69.1 °F 55% 29.86 in 10.0 mi North 5.8 mph - N/A   Clear
4:54 PM 87.1 °F 91.3 °F 69.1 °F 55% 29.86 in 10.0 mi Calm Calm - N/A   Clear
5:54 PM 89.1 °F 94.1 °F 70.0 °F 53% 29.85 in 10.0 mi Variable 3.5 mph - N/A   Clear
6:54 PM 87.1 °F 91.3 °F 69.1 °F 55% 29.84 in 10.0 mi WNW 4.6 mph - N/A   Clear
7:54 PM 84.0 °F 87.0 °F 68.0 °F 58% 29.84 in 8.0 mi West 4.6 mph - N/A   Clear
8:54 PM 82.0 °F 85.9 °F 70.0 °F 67% 29.85 in 10.0 mi West 3.5 mph - N/A   Clear
9:54 PM 73.9 °F - 69.1 °F 85% 29.88 in 10.0 mi North 5.8 mph - N/A   Clear
10:54 PM 73.0 °F - 69.1 °F 87% 29.89 in 10.0 mi Calm Calm - N/A   Clear
11:54 PM 72.0 °F - 69.1 °F 91% 29.89 in 10.0 mi Calm Calm - N/A   Clear